Zurück zum Katalog

STARLINK-36670

AktivKommunikationVLEO
NORAD 67828·PAYLOAD·🇺🇸 United States

Gestartet Feb 16, 2026 von Vandenberg Space Force Base

Loading…

Nächste Überflüge (nächste 24 Stunden)

TLE

AktuellSource: CelesTrak SupGP

Epoche: Sep 14, 2026, 22:38 UTC

1 67828C 26033H   26257.94354167  .00033142  00000+0  12006-2 0  2576
2 67828  42.9998 278.5504 0001550 263.2365 127.1102 15.27556205    16

Verfolge STARLINK-36670 in Echtzeit mit AllMySat

Download on the App Store